RH
46 28 18 15 14 14 18 26 38 45 44 35 29 24 27 37 40 39 44 42 42 42 45 31 36 35 32 26 22 20 18 17 16 13 10 10 13 17 15 12 10 5 5 5
46 31 22 18 15 14 16 22 32 42 43 41 34 28 27 28 31 33 26 30 29 30 33 28 35 29 29 27 21 19 19 17 14 11 11 13 17 17 14 12 6 5 5 6
52 36 24 19 16 13 14 20 27 33 39 37 35 30 28 28 27 31 26 25 22 25 23 33 29 26 26 18 18 18 16 14 11 12 13 17 18 15 13 7 5 5 6 7
61 40 26 19 15 13 13 17 23 28 32 32 32 27 30 30 28 29 28 26 21 18 22 31 26 25 21 18 18 16 14 12 12 14 18 18 16 13 6 5 5 5 5 7
48 36 26 18 16 13 12 14 21 26 28 30 31 29 29 29 30 30 30 28 23 20 26 31 27 23 20 18 16 14 13 13 16 19 19 17 12 6 5 5 6 8 10 12
46 34 25 19 15 13 12 12 18 24 27 27 28 29 27 30 33 33 30 26 24 24 34 30 23 20 18 17 15 14 15 18 20 20 17 9 5 5 6 9 11 12 14 18
43 31 25 19 15 12 11 12 14 22 25 24 26 27 25 28 31 33 32 28 28 30 29 22 19 18 17 15 15 16 20 21 20 15 7 5 6 7 10 12 16 22 29 34
37 23 20 17 13 11 10 10 11 14 18 20 22 23 24 25 29 32 31 30 29 26 21 19 18 17 16 17 19 22 22 19 13 7 6 6 9 12 18 29 36 36 35 33
30 25 20 16 13 12 9 8 10 10 12 15 18 18 22 30 31 31 30 29 26 20 19 18 17 17 18 22 23 21 15 10 6 6 10 16 25 35 36 34 31 29 29 29
32 23 18 15 12 10 12 12 11 10 11 12 13 17 27 31 31 30 29 26 21 19 17 17 18 22 24 22 18 11 7 7 12 23 32 33 29 28 28 30 33 37 39 40
40 30 22 15 11 11 11 14 11 16 12 12 13 19 29 32 32 28 23 19 17 17 18 22 24 23 20 13 8 8 17 27 28 24 25 29 32 36 42 46 50 52 52 52
47 41 30 30 21 17 17 20 21 16 20 20 22 23 28 27 23 19 18 18 20 23 25 24 20 11 8 10 23 27 24 23 28 33 38 44 50 55 58 59 59 59 57 57
45 42 42 40 33 32 31 33 33 32 30 28 28 26 22 19 18 18 19 24 26 26 18 9 10 17 23 23 23 25 32 36 43 51 57 60 64 66 67 66 66 66 65 64
35 33 31 35 32 32 33 37 36 34 29 25 23 19 20 20 22 25 26 24 15 9 16 22 22 24 26 31 36 42 51 60 65 69 71 74 78 83 87 91 95 99 99 99
24 26 27 27 28 26 25 26 26 24 21 19 20 24 30 28 26 20 12 13 21 23 23 26 31 36 42 49 58 66 71 75 81 87 92 95 97 96 97 98 98 98 99 98
26 24 21 20 20 20 20 19 19 21 25 28 28 26 16 11 12 21 24 25 25 28 33 39 45 53 63 69 72 79 88 97 100 100 100 100 100 100 100 99 91 81 72 64
21 26 30 30 31 29 28 29 27 24 19 12 12 19 26 30 28 26 28 33 42 48 55 62 68 74 80 88 96 99 100 100 100 100 100 98 93 87 79 72 66 60 56 56
24 24 22 19 19 15 19 20 25 29 28 26 24 24 27 32 38 46 52 57 61 64 69 74 80 86 90 92 92 89 89 89 86 79 70 62 59 56 53 52 52 51 49 49
39 43 42 36 34 30 28 28 30 32 35 40 46 50 53 55 57 58 61 65 70 74 80 82 82 84 86 84 83 79 70 64 60 56 53 50 47 46 46 46 46 50 55 60
39 36 34 34 34 33 37 39 44 47 45 50 55 55 56 58 60 66 70 74 78 82 86 87 85 82 77 69 64 64 61 56 50 43 39 40 41 40 40 42 46 53 55 54
56 56 52 51 43 37 44 43 44 45 49 53 55 59 61 65 71 73 75 80 87 84 78 71 66 66 66 63 56 49 44 40 37 34 33 33 33 31 33 38 43 46 44 39
55 58 58 58 56 54 55 55 57 59 58 59 60 63 69 75 85 94 93 84 73 69 68 67 67 66 63 57 52 44 41 38 35 32 30 29 30 33 38 41 41 37 28 17
55 60 61 62 64 64 63 63 64 65 63 63 66 72 78 88 92 86 76 72 72 73 77 83 85 79 65 56 48 42 36 33 30 29 28 30 34 40 39 33 22 12 8 9
67 66 64 66 68 71 77 81 82 84 86 88 90 88 88 84 82 78 77 81 90 94 94 90 85 78 63 53 46 38 33 28 27 26 28 31 31 27 17 8 9 12 14 16
73 76 76 74 75 77 81 88 93 97 99 100 97 94 91 89 92 98 100 100 99 92 87 82 80 73 65 53 42 32 28 27 28 29 27 20 11 8 12 17 25 34 44 60
87 86 83 84 92 95 98 100 99 99 98 95 95 97 100 99 98 100 100 100 95 90 83 79 72 59 48 39 32 27 27 28 26 14 8 12 21 30 36 38 42 58 68 74
Wind_Speed
45 48 49 51 51 53 52 51 49 46 42 40 37 34 34 35 33 32 33 30 29 30 30 29 28 27 27 27 28 30 33 34 36 37 37 38 40 43 42 42 40 38 37 34
43 46 46 47 48 50 50 50 49 46 43 40 37 34 35 35 32 33 30 28 29 30 30 30 30 29 29 30 31 33 35 37 38 37 37 39 43 43 43 42 40 39 36 33
42 43 43 44 44 46 47 48 47 46 43 41 37 34 35 34 32 32 29 29 29 31 31 31 31 31 31 33 34 36 38 38 37 38 39 42 44 43 42 41 39 38 35 34
38 40 41 40 40 41 42 45 45 44 42 41 38 35 35 34 32 30 30 30 30 31 33 33 32 33 34 36 37 39 39 37 38 39 42 44 44 42 41 39 37 35 35 36
37 38 38 38 37 38 39 42 43 42 42 40 39 37 35 33 31 30 30 31 32 34 34 34 35 35 36 37 39 38 37 38 40 42 44 44 42 41 38 35 35 37 38 40
31 34 36 35 34 34 36 38 40 40 40 41 39 38 33 32 31 31 31 33 34 35 36 37 37 38 38 38 37 36 37 40 43 44 44 43 42 39 36 38 40 42 43 44
25 29 31 32 31 32 33 35 37 39 40 41 37 37 33 32 32 32 33 35 36 38 38 37 38 39 38 35 35 38 41 43 45 45 44 42 40 40 42 44 46 47 47 47
22 26 28 28 28 28 29 31 34 37 39 39 37 38 33 30 31 32 34 36 38 38 38 38 38 36 34 36 39 42 45 47 47 46 44 43 44 46 48 48 48 48 49 50
20 22 24 26 26 26 27 28 30 33 35 34 35 34 32 30 31 33 35 36 37 37 37 36 34 34 37 40 43 46 47 47 46 45 46 48 49 49 49 50 51 52 53 53
20 21 23 24 25 25 25 25 27 28 31 32 32 31 30 31 32 34 37 38 37 35 33 34 36 39 42 45 46 47 47 46 47 50 50 50 51 52 53 54 55 56 57 59
16 18 21 23 24 24 25 26 26 28 30 30 31 30 30 31 32 33 33 33 33 34 36 38 41 44 45 46 46 46 48 50 51 52 53 54 55 56 57 58 59 61 62 63
12 14 18 18 22 24 25 26 28 30 29 30 30 28 27 27 28 30 33 34 36 38 40 43 44 45 45 46 48 50 51 54 55 55 57 58 59 61 62 63 64 65 65 66
6 8 12 17 20 22 24 24 26 27 29 29 30 25 23 28 32 34 36 38 40 42 43 43 44 46 48 50 52 55 56 57 59 59 60 62 63 64 65 65 66 66 67 67
8 8 7 12 13 17 17 21 23 25 25 23 27 25 26 32 35 38 40 41 42 42 43 45 47 50 53 54 56 58 60 61 62 63 65 66 68 68 69 69 69 70 71 72
9 11 12 13 14 16 17 22 24 25 27 29 25 29 30 36 40 42 41 41 42 44 48 51 53 54 56 58 59 60 61 62 63 66 68 70 71 71 71 72 72 73 74 75
11 12 16 17 19 22 23 24 25 26 28 31 33 32 37 40 41 41 42 45 49 52 53 55 57 58 59 61 62 64 65 66 67 68 68 69 70 70 72 73 75 76 78 79
17 19 21 21 24 26 25 26 30 31 33 36 36 37 38 40 43 46 49 52 53 56 58 59 61 62 64 66 68 69 70 69 69 69 71 72 73 74 76 77 79 80 82 83
18 21 23 23 26 29 26 27 30 32 34 37 40 42 45 46 48 49 53 55 57 59 61 63 65 67 70 70 70 69 69 70 71 73 74 76 78 80 82 83 84 84 84 84
25 27 29 31 30 33 33 33 34 36 40 42 43 46 48 50 52 55 57 59 61 63 65 68 70 71 70 69 68 70 72 74 75 77 79 82 84 85 85 85 85 84 82 79
32 35 37 38 42 43 41 40 41 44 49 46 49 52 54 56 60 61 62 64 66 67 68 67 66 65 66 68 71 72 74 76 79 82 84 86 87 87 87 88 86 83 81 79
35 38 40 42 45 47 46 47 49 51 52 55 57 59 60 62 63 64 66 66 64 61 61 61 63 66 68 70 73 76 79 81 83 86 89 90 91 95 95 92 87 83 82 82
39 42 44 46 49 52 52 54 55 57 58 59 60 62 63 63 62 60 59 59 59 59 61 64 66 69 72 75 78 80 83 86 90 93 95 97 98 97 96 93 90 88 85 83
43 44 46 48 50 52 54 57 59 61 62 62 63 64 65 63 62 61 60 61 62 65 67 69 71 73 76 79 83 86 89 93 96 99 100 100 98 94 91 90 87 84 79 76
50 51 51 51 52 55 58 61 62 62 63 64 64 63 63 62 61 62 64 67 70 72 73 74 75 77 79 83 88 91 94 97 100 101 100 99 96 92 87 82 76 74 70 66
59 56 55 57 56 56 58 59 58 58 58 59 59 59 60 62 63 66 69 70 70 72 74 76 78 79 83 86 90 93 96 98 99 97 94 90 86 80 76 72 70 66 61 58
57 57 57 57 56 57 55 53 54 55 57 59 60 60 61 63 65 67 68 69 71 73 75 77 80 83 85 88 92 94 96 93 90 86 80 78 78 77 78 77 72 68 64 60
Wind_Direction
196 190 197 202 203 204 207 210 213 215 216 218 218 214 219 223 225 232 239 247 254 260 266 269 267 268 269 274 278 281 282 287 291 296 302 306 310 312 312 312 311 312 313 312
192 185 192 195 198 201 204 205 208 212 215 218 219 215 221 226 228 235 242 248 253 258 262 263 265 267 271 277 279 280 284 288 294 300 304 308 309 308 308 308 309 310 309 308
188 182 186 191 195 198 201 206 207 210 214 219 220 217 221 229 230 237 242 245 251 256 260 262 264 269 275 277 278 282 286 292 297 302 305 306 306 307 307 307 307 307 307 306
184 177 181 187 192 196 200 205 208 211 214 219 221 221 224 229 234 239 243 248 252 256 259 262 266 271 275 277 280 284 289 295 299 302 303 304 303 304 304 304 304 304 303 302
177 171 177 182 189 194 199 205 208 211 215 219 223 227 225 232 237 242 246 252 257 261 264 267 270 274 277 278 281 286 292 297 300 301 300 300 301 300 299 298 299 300 300 300
169 170 176 181 187 192 200 205 209 213 217 222 225 230 226 232 238 243 248 252 257 260 265 270 272 274 276 279 286 293 296 297 298 297 297 297 296 295 295 296 297 296 296 296
161 169 175 180 185 191 199 206 210 214 219 225 227 234 234 233 237 243 249 255 260 263 267 270 271 274 279 287 292 294 295 294 293 294 294 292 291 292 294 295 295 295 294 294
158 169 174 177 184 192 200 207 213 218 223 228 229 235 238 238 241 245 250 254 260 266 269 272 275 281 287 289 291 291 290 290 290 291 291 291 294 294 295 294 294 293 292 292
154 170 174 177 183 191 199 208 216 221 226 231 234 237 238 239 245 251 255 259 263 266 269 275 282 286 288 287 287 286 287 288 290 291 292 292 293 293 292 292 291 291 291 291
153 166 176 182 187 193 202 209 217 224 229 233 235 237 240 245 250 254 259 265 270 275 280 282 283 283 284 283 284 286 288 290 290 290 291 290 290 291 291 290 291 290 290 288
151 167 175 182 189 197 205 211 219 225 231 235 237 239 243 251 259 265 269 273 274 276 279 280 281 282 284 286 287 287 289 290 290 291 291 291 290 290 289 288 288 287 287 287
152 167 181 187 195 201 207 213 220 226 231 239 243 242 253 261 265 266 267 271 274 276 278 280 284 285 285 285 287 289 290 289 289 289 288 288 289 289 289 289 289 288 287 286
155 163 188 198 202 207 213 220 227 235 239 242 250 260 266 263 263 266 269 272 275 279 282 283 283 285 287 288 287 287 286 286 287 287 288 289 289 289 288 287 287 287 287 287
161 181 186 205 216 222 229 237 243 249 258 261 260 259 263 263 267 269 272 276 279 281 283 285 285 285 285 286 287 288 288 289 290 291 291 291 290 290 289 290 290 290 289 289
213 207 211 217 221 226 226 233 242 246 251 255 258 264 268 270 270 273 277 279 280 281 282 283 284 285 287 287 288 288 289 289 289 289 289 289 290 291 291 291 291 291 291 290
243 238 240 242 242 240 240 245 252 256 260 264 266 266 266 267 271 274 275 277 279 281 283 285 287 288 288 289 289 289 288 288 288 288 289 290 290 290 291 291 292 291 291 291
266 263 259 256 259 254 250 259 262 263 264 265 267 268 269 270 274 278 281 282 284 287 289 290 291 292 292 292 292 292 292 292 293 293 294 294 294 294 294 293 293 292 292 292
269 269 268 266 263 263 266 263 266 268 269 270 272 274 277 279 280 282 285 288 289 291 291 292 293 292 292 292 292 292 292 293 293 294 294 294 295 295 294 294 294 294 295 294
282 280 277 274 272 271 269 268 269 271 272 273 277 280 281 283 285 286 288 289 291 291 291 291 291 291 291 291 292 293 293 294 295 296 297 297 297 297 297 297 297 297 296 295
277 278 277 281 281 282 281 281 281 281 280 284 283 284 287 289 289 289 289 288 288 288 288 288 289 290 290 291 292 294 296 296 297 298 298 298 297 298 299 300 300 300 298 298
278 277 275 275 275 276 278 277 277 278 281 282 284 285 285 285 286 286 286 287 287 287 287 288 290 291 292 294 295 297 298 299 299 299 300 300 300 300 301 302 302 302 302 300
273 274 275 276 279 280 281 282 282 281 282 283 284 284 285 284 285 286 287 287 287 288 290 290 292 294 296 298 299 301 301 301 301 300 300 301 302 303 305 305 305 303 301 300
273 271 273 274 276 277 278 278 278 279 281 283 284 284 285 286 286 286 287 288 289 290 291 293 295 297 301 302 302 301 301 301 300 300 301 302 303 304 304 303 302 301 300 299
275 275 275 274 275 274 273 274 276 278 279 280 282 283 285 286 286 287 289 291 293 295 296 296 297 298 300 301 302 302 300 300 301 301 302 303 303 302 301 301 299 299 299 298
277 278 276 275 275 276 277 278 280 281 281 281 282 283 284 286 288 291 292 294 295 295 296 297 298 299 300 300 299 300 301 301 302 303 304 303 303 303 301 300 299 299 298 296
279 277 277 277 277 278 280 281 281 280 280 281 282 284 286 288 290 292 293 296 297 297 298 299 300 300 299 299 298 299 301 304 306 306 306 305 304 303 301 299 296 293 292 291